Starlink 31166

operational
NORAD ID: 58789 Int'l Des: 2024-012 Owner: SPXS Country: US Constellation: starlink
LEOCIRCULAR

About Starlink 31166

Description loading...

Live Position

Loading 3D Globe...

Upcoming Passes

Altitude History

Altitude vs Time

uPlot chart will show altitude changes over time

Two-Line Element Set

1 58789U 24012C 25304.00201350 .00000271 00000-0 19358-4 0 9991
2 58789 43.0008 177.5011 0001436 276.5084 83.5604 15.27581522101402
Epoch: Oct 31, 2025 • Age: 11 hours

Current Status

Altitude 483.2 km
Velocity 7.63 km/s
Sub-Earth Point -4.31°S, 34.78°W
Launch Date Jan 15, 2024
Age 1.7 years
Type internet

Technical Details

Classification Payload
Mass 730.00 kg
Dry Mass 700.00 kg
Total Mass 730.00 kg
Length 0.30 m
Diameter 4.10 m
Span 29.00 m
Shape Box + pan
Manufacturer SPXS
Bus Type Starlink V2M
Phase Status In Orbit
Owner/State SPXS/US

Large Constellations

Loading constellations...